Total_Precipitation_Accumulation
0.70 0.87 1.20 1.61 2.02 1.36 0.68 0.45 0.31 0.28 0.22 0.16 0.09 0.07 0.14 0.26 0.50 1.01 0.94 0.57 0.37 0.36 0.41 0.51 0.70 0.71 0.65 0.60 0.68 0.80 0.94 1.06 1.05 0.97 0.85 0.66 0.59 0.51 0.53 0.52 0.51 0.48 0.40 0.45 0.48 0.48 0.47 0.41 0.36
0.68 1.28 1.71 2.31 1.96 0.93 0.64 0.44 0.38 0.25 0.18 0.14 0.08 0.05 0.08 0.13 0.19 0.51 0.86 0.73 0.34 0.26 0.30 0.39 0.59 0.69 0.66 0.69 0.81 0.89 0.97 1.01 0.95 0.86 0.73 0.63 0.59 0.55 0.53 0.57 0.58 0.54 0.47 0.51 0.55 0.62 0.54 0.43 0.36
0.78 1.51 1.99 2.15 1.22 0.70 0.62 0.41 0.36 0.22 0.15 0.13 0.09 0.05 0.08 0.19 0.27 0.52 0.73 0.50 0.32 0.26 0.28 0.41 0.59 0.66 0.68 0.73 0.82 0.90 0.91 0.89 0.85 0.81 0.72 0.66 0.62 0.59 0.58 0.61 0.64 0.60 0.51 0.48 0.57 0.61 0.54 0.48 0.39
1.11 1.83 2.06 1.54 0.85 0.53 0.44 0.42 0.31 0.22 0.15 0.11 0.07 0.08 0.13 0.20 0.31 0.48 0.50 0.38 0.34 0.34 0.37 0.41 0.60 0.64 0.62 0.75 0.80 0.82 0.74 0.69 0.75 0.77 0.71 0.68 0.62 0.62 0.64 0.63 0.60 0.54 0.50 0.52 0.58 0.59 0.54 0.52 0.43
1.41 2.01 1.92 1.23 0.76 0.51 0.40 0.31 0.24 0.22 0.22 0.17 0.10 0.13 0.26 0.29 0.32 0.38 0.39 0.36 0.39 0.47 0.53 0.49 0.62 0.60 0.59 0.72 0.81 0.81 0.82 0.79 0.82 0.83 0.78 0.75 0.67 0.65 0.68 0.62 0.53 0.48 0.50 0.56 0.71 0.69 0.53 0.48 0.44
1.82 2.01 2.09 1.35 0.86 0.59 0.50 0.34 0.25 0.22 0.19 0.19 0.15 0.20 0.31 0.34 0.37 0.44 0.43 0.49 0.51 0.51 0.52 0.53 0.67 0.65 0.63 0.71 0.77 0.73 0.77 0.89 0.92 0.85 0.83 1.00 0.84 0.71 0.63 0.59 0.53 0.50 0.50 0.57 0.68 0.69 0.54 0.47 0.48
1.93 2.05 1.72 1.12 0.88 0.85 0.61 0.34 0.29 0.27 0.23 0.22 0.17 0.28 0.36 0.42 0.33 0.35 0.40 0.45 0.47 0.45 0.47 0.49 0.57 0.64 0.67 0.76 0.85 0.85 0.88 0.97 1.01 0.87 0.87 0.96 0.74 0.59 0.54 0.53 0.52 0.53 0.58 0.63 0.66 0.68 0.60 0.57 0.57
1.30 1.43 1.30 1.07 0.93 0.84 0.51 0.28 0.23 0.21 0.21 0.18 0.17 0.26 0.46 0.46 0.34 0.39 0.43 0.48 0.50 0.51 0.53 0.49 0.53 0.66 0.79 0.81 0.83 0.93 0.99 0.97 1.02 0.90 0.88 0.85 0.61 0.49 0.52 0.48 0.45 0.48 0.54 0.63 0.68 0.69 0.64 0.61 0.59
1.24 1.32 1.37 1.27 0.93 0.66 0.42 0.33 0.24 0.18 0.18 0.18 0.14 0.17 0.25 0.31 0.34 0.46 0.53 0.53 0.58 0.58 0.60 0.56 0.50 0.52 0.67 0.81 0.75 0.97 1.07 1.05 0.97 0.93 0.93 0.83 0.57 0.49 0.50 0.47 0.55 0.55 0.64 0.71 0.73 0.70 0.62 0.56 0.50
1.23 1.36 1.34 1.01 0.72 0.49 0.34 0.30 0.29 0.27 0.27 0.23 0.18 0.17 0.20 0.28 0.36 0.44 0.47 0.52 0.55 0.55 0.50 0.50 0.48 0.47 0.49 0.58 0.85 1.20 1.06 0.97 0.81 0.84 0.81 0.81 0.75 0.69 0.54 0.55 0.69 0.73 0.74 0.76 0.75 0.73 0.59 0.45 0.36
1.03 0.96 0.85 0.84 0.57 0.36 0.29 0.29 0.28 0.26 0.30 0.24 0.20 0.19 0.21 0.27 0.32 0.33 0.37 0.42 0.46 0.48 0.47 0.44 0.42 0.42 0.45 0.60 0.73 0.94 1.02 1.00 0.88 0.76 0.76 0.84 0.79 0.69 0.58 0.52 0.58 0.66 0.71 0.65 0.65 0.64 0.48 0.42 0.43
0.89 0.72 0.59 0.55 0.41 0.36 0.38 0.32 0.26 0.25 0.25 0.18 0.17 0.19 0.25 0.30 0.31 0.29 0.33 0.41 0.47 0.49 0.51 0.51 0.43 0.43 0.46 0.51 0.51 0.60 0.68 0.73 0.71 0.64 0.65 0.78 0.73 0.68 0.66 0.66 0.62 0.63 0.65 0.70 0.67 0.62 0.54 0.49 0.50
0.77 0.63 0.51 0.40 0.39 0.38 0.37 0.33 0.30 0.27 0.22 0.19 0.20 0.25 0.31 0.32 0.31 0.32 0.34 0.37 0.42 0.46 0.51 0.51 0.48 0.44 0.44 0.46 0.46 0.45 0.55 0.59 0.61 0.65 0.62 0.65 0.69 0.68 0.67 0.64 0.70 0.72 0.69 0.72 0.70 0.60 0.55 0.53 0.50
0.70 0.62 0.58 0.45 0.40 0.44 0.39 0.32 0.31 0.31 0.24 0.22 0.21 0.24 0.25 0.30 0.34 0.35 0.36 0.39 0.40 0.41 0.47 0.49 0.49 0.52 0.51 0.48 0.48 0.49 0.55 0.60 0.60 0.54 0.52 0.58 0.59 0.61 0.71 0.76 0.77 0.78 0.78 0.84 0.83 0.64 0.62 0.63 0.58
0.54 0.58 0.56 0.47 0.42 0.47 0.44 0.44 0.36 0.34 0.29 0.30 0.25 0.21 0.20 0.23 0.26 0.32 0.36 0.37 0.40 0.43 0.47 0.49 0.52 0.61 0.61 0.57 0.58 0.53 0.59 0.61 0.61 0.61 0.61 0.65 0.66 0.68 0.77 0.86 0.88 0.87 0.84 0.87 1.09 0.97 0.73 0.67 0.63
0.62 0.65 0.70 0.48 0.45 0.54 0.57 0.53 0.36 0.37 0.32 0.33 0.27 0.22 0.20 0.21 0.23 0.24 0.27 0.33 0.37 0.46 0.54 0.62 0.56 0.62 0.66 0.66 0.69 0.69 0.71 0.74 0.70 0.69 0.72 0.73 0.77 0.80 0.88 0.94 0.85 0.91 0.98 1.01 1.17 1.23 0.93 0.75 0.73
0.70 0.67 0.61 0.49 0.40 0.48 0.53 0.45 0.36 0.34 0.28 0.26 0.25 0.23 0.20 0.20 0.20 0.19 0.19 0.24 0.33 0.45 0.57 0.69 0.68 0.67 0.73 0.80 0.88 0.90 0.86 0.87 0.85 0.86 0.82 0.85 0.89 0.96 1.01 1.03 0.98 0.99 1.00 1.10 1.10 1.30 1.26 1.05 0.91
0.70 0.54 0.44 0.42 0.41 0.47 0.48 0.35 0.29 0.29 0.25 0.22 0.21 0.21 0.18 0.18 0.19 0.18 0.16 0.17 0.23 0.36 0.49 0.66 0.80 0.92 0.99 1.04 1.10 1.16 1.09 1.03 1.06 1.10 1.07 1.09 1.14 1.11 1.16 1.18 1.21 1.28 1.26 1.23 1.16 1.33 1.43 1.22 1.16
0.56 0.46 0.38 0.34 0.37 0.36 0.32 0.25 0.24 0.25 0.24 0.20 0.17 0.17 0.16 0.14 0.14 0.12 0.12 0.17 0.22 0.31 0.41 0.59 0.92 1.37 1.57 1.48 1.42 1.51 1.62 1.62 1.53 1.51 1.49 1.55 1.54 1.54 1.58 1.54 1.52 1.48 1.42 1.48 1.48 1.68 1.98 1.53 1.33
0.51 0.50 0.44 0.36 0.28 0.25 0.23 0.18 0.17 0.19 0.20 0.19 0.17 0.17 0.17 0.15 0.12 0.08 0.10 0.13 0.19 0.34 0.50 0.63 0.88 1.32 1.54 1.66 1.77 1.98 2.19 2.11 1.98 1.97 1.92 2.00 2.02 2.18 2.15 2.12 2.09 1.99 1.96 1.95 1.87 1.93 2.17 1.84 1.63
0.47 0.46 0.43 0.37 0.25 0.19 0.15 0.13 0.12 0.14 0.15 0.14 0.15 0.17 0.16 0.14 0.13 0.13 0.12 0.16 0.20 0.29 0.41 0.57 0.73 1.02 1.36 1.61 1.90 2.21 2.46 2.46 2.35 2.19 2.16 2.23 2.29 2.45 2.58 2.57 2.60 2.41 2.26 2.26 2.20 2.13 2.22 2.27 2.05
0.41 0.31 0.26 0.23 0.24 0.23 0.15 0.17 0.14 0.17 0.17 0.16 0.16 0.18 0.18 0.18 0.16 0.18 0.17 0.18 0.20 0.26 0.33 0.46 0.64 0.89 1.14 1.39 1.81 2.26 2.58 2.70 2.62 2.51 2.46 2.43 2.45 2.50 2.71 2.75 2.84 2.66 2.54 2.48 2.40 2.21 2.29 2.55 2.46
0.29 0.24 0.20 0.20 0.18 0.17 0.13 0.14 0.16 0.17 0.20 0.19 0.19 0.20 0.19 0.18 0.19 0.21 0.22 0.24 0.26 0.25 0.31 0.42 0.56 0.80 1.05 1.27 1.64 2.06 2.36 2.61 2.77 2.60 2.47 2.49 2.52 2.55 2.67 2.81 2.91 2.76 2.63 2.56 2.66 2.52 2.46 2.38 2.33
0.25 0.23 0.18 0.15 0.16 0.16 0.09 0.15 0.23 0.21 0.20 0.19 0.18 0.18 0.19 0.20 0.25 0.28 0.36 0.42 0.41 0.35 0.37 0.47 0.55 0.69 0.85 1.00 1.24 1.48 1.84 2.14 2.50 2.50 2.42 2.55 2.53 2.46 2.40 2.55 2.77 2.70 2.68 2.68 2.75 2.77 2.71 2.67 2.66
0.19 0.24 0.27 0.25 0.24 0.17 0.10 0.20 0.32 0.27 0.21 0.20 0.20 0.20 0.22 0.24 0.27 0.35 0.48 0.53 0.54 0.48 0.44 0.45 0.55 0.61 0.68 0.78 0.91 1.08 1.35 1.55 1.94 2.26 2.25 2.17 2.22 2.28 2.34 2.38 2.37 2.37 2.46 2.60 2.83 2.78 2.65 2.64 2.72
0.14 0.21 0.33 0.37 0.33 0.25 0.22 0.37 0.44 0.33 0.24 0.22 0.21 0.23 0.26 0.30 0.36 0.52 0.66 0.69 0.68 0.60 0.53 0.52 0.60 0.64 0.66 0.71 0.74 0.84 1.00 1.13 1.31 1.55 1.67 1.71 1.78 2.00 2.11 2.23 2.20 2.21 2.27 2.36 2.48 2.51 2.51 2.47 2.44
0.14 0.16 0.20 0.28 0.27 0.28 0.35 0.49 0.44 0.28 0.26 0.28 0.29 0.30 0.40 0.49 0.56 0.68 0.82 0.84 0.76 0.69 0.62 0.60 0.64 0.73 0.73 0.72 0.74 0.84 0.90 0.94 1.06 1.10 1.25 1.45 1.49 1.55 1.70 1.81 1.92 2.03 2.09 2.16 2.31 2.36 2.34 2.35 2.33
0.11 0.15 0.22 0.33 0.40 0.39 0.39 0.48 0.48 0.38 0.38 0.38 0.42 0.45 0.55 0.67 0.75 0.83 0.96 0.97 0.83 0.71 0.61 0.59 0.62 0.73 0.92 1.04 0.99 0.93 1.01 1.08 1.30 1.34 1.19 1.19 1.37 1.45 1.50 1.56 1.64 1.80 1.94 2.02 2.09 2.17 2.27 2.25 2.26
0.17 0.25 0.31 0.38 0.41 0.56 0.65 0.66 0.59 0.57 0.58 0.59 0.62 0.65 0.74 0.86 0.87 0.84 0.92 0.98 0.87 0.68 0.61 0.56 0.56 0.68 0.83 0.87 0.93 0.92 0.97 1.07 1.35 1.57 1.51 1.33 1.34 1.39 1.36 1.31 1.41 1.56 1.69 1.79 1.90 1.96 1.97 1.98 2.11
0.26 0.37 0.52 0.71 0.68 0.64 0.78 0.81 0.65 0.59 0.63 0.64 0.64 0.63 0.68 0.79 0.80 0.81 0.83 0.80 0.70 0.56 0.49 0.47 0.48 0.59 0.71 0.71 0.77 0.84 0.86 0.95 1.07 1.19 1.21 1.15 1.08 1.06 1.13 1.18 1.21 1.30 1.47 1.58 1.62 1.64 1.68 1.73 1.84